Location: Wien
(48.2082°N, 16.3738°E)
Time: 12:01:34
(UTC+02:00)

DOVE 4 - Pass Details

Date: 26 March 2019
Orbit: 587 x 804 km, 97.7° (Epoch: 24 April)

Event Time Altitude Azimuth Distance (km) Brightness Sun altitude
Rises 04:56:47 0° 356° (N) 2,942 ? -8.9°
Reaches altitude 10° 05:00:23 10° 325° (NW) 1,985 ? -8.4°
Maximum altitude 05:01:55 12° 304° (NW) 1,851 ? -8.1°
Drops below altitude 10° 05:03:26 10° 283° (WNW) 1,952 ? -7.9°
Enters shadow 05:04:01 - 275° (W) 2,048 ? -7.8°
